Theta_e
312 312 311 310 309 309 310 311 311 312 312 313 312 312 311 311 311 311 311 311 311 311 311 310 310 309 309 309 310 311 312 313 314 314 316 317 317 316 316 316 315 316 316 315 315 315 315 316 316 315 315 316 316 316 315 315 316 316 318 319 319 318 318 320 321 320 319 318 316 315 315 314 313 313 313 314 314 314 314 314 315 315 315 315 316 316 316 316
312 312 311 310 309 310 310 311 311 311 311 312 312 312 312 312 312 312 312 312 312 312 312 312 312 311 310 310 310 310 310 311 312 313 315 316 315 316 316 315 315 315 315 315 315 315 316 316 316 315 315 316 315 315 315 316 316 317 320 319 318 319 317 316 317 316 316 316 315 315 314 313 313 313 313 314 313 313 313 313 314 314 314 315 315 315 315 315
312 311 311 310 309 309 310 310 311 311 311 311 312 312 312 312 312 312 312 313 313 313 313 313 313 313 312 312 311 311 311 311 311 312 314 315 316 316 316 316 315 315 315 315 316 316 316 315 315 315 314 314 314 315 314 315 316 316 318 319 318 318 316 314 315 315 315 315 314 314 314 313 313 313 313 313 313 312 312 313 313 313 314 314 315 315 315 315
311 311 311 310 309 309 309 310 310 311 311 310 311 312 312 312 312 312 312 312 312 312 312 312 313 313 313 313 313 313 313 313 313 313 316 316 316 316 316 316 315 315 315 315 316 315 315 315 315 314 314 314 314 314 313 314 316 315 316 319 318 316 316 315 314 315 315 315 314 313 313 313 313 314 312 312 312 312 312 312 313 313 314 314 314 314 314 314
310 311 310 310 310 309 309 309 309 310 310 310 311 311 312 311 311 311 311 311 311 311 311 312 312 313 313 313 313 313 313 316 317 317 317 316 316 316 316 316 316 315 314 315 315 314 315 315 314 314 314 314 313 313 313 313 314 315 315 316 315 314 315 315 314 315 315 314 313 312 313 313 313 312 312 311 312 312 312 313 313 313 313 313 313 313 313 314
310 310 310 310 309 309 309 309 309 309 310 311 311 310 310 311 310 310 309 309 310 310 311 312 312 313 312 312 312 311 312 317 319 317 317 317 316 316 315 316 316 315 315 315 315 314 315 315 315 315 313 313 314 314 314 313 312 314 313 312 313 314 314 314 314 314 314 312 311 312 312 312 311 311 312 311 311 312 313 313 312 312 312 312 313 313 313 313
310 310 310 310 310 309 309 309 309 309 309 310 310 310 309 309 309 309 309 310 311 312 312 312 313 312 311 311 311 311 311 314 315 315 315 315 315 315 315 316 316 316 315 315 316 314 314 315 315 314 313 314 313 313 313 312 312 312 312 311 312 312 311 312 313 312 312 311 310 311 311 310 310 311 312 311 311 312 312 313 312 312 312 312 312 312 312 312
310 310 310 310 310 309 309 309 309 308 309 310 309 309 309 309 308 309 310 311 311 312 312 312 312 312 310 310 311 310 311 312 312 313 313 312 313 313 314 315 315 316 315 316 315 314 315 315 315 314 314 314 313 313 313 313 313 313 313 311 311 312 312 313 313 312 313 312 312 312 311 311 311 311 311 311 312 313 313 313 313 312 313 312 312 312 312 312
309 309 309 309 308 308 309 309 309 309 309 309 309 308 308 309 308 309 310 310 311 311 312 312 312 311 311 310 310 312 312 313 313 313 314 313 313 313 314 315 315 316 316 316 314 314 315 315 315 315 315 315 314 314 313 314 316 314 313 312 312 313 313 314 313 313 314 313 313 312 311 312 312 312 312 312 313 314 314 313 313 313 313 313 313 313 313 312
309 309 309 309 309 309 309 309 308 308 309 309 309 308 309 308 308 309 308 309 309 309 309 310 311 311 310 309 310 313 313 313 314 314 315 315 315 314 315 316 316 316 316 315 314 314 315 315 315 315 315 315 314 314 313 314 315 313 313 313 313 313 313 314 313 313 314 313 313 312 312 312 312 312 313 314 314 314 313 313 314 313 313 313 313 313 313 313
309 309 310 310 310 310 310 310 309 309 309 309 309 309 309 309 308 308 308 308 308 308 308 308 310 310 309 309 309 313 313 313 314 313 314 314 315 315 316 317 317 316 315 314 314 314 314 315 315 315 315 315 314 314 313 314 314 313 314 314 313 313 313 313 313 313 313 314 314 313 312 312 311 312 312 314 315 314 313 313 313 313 313 313 313 313 313 313
309 309 310 311 311 310 310 310 310 310 310 310 310 311 310 310 309 308 307 307 307 308 307 307 308 308 308 307 309 312 312 312 313 312 313 313 314 315 316 317 316 315 315 314 314 314 315 315 315 315 316 315 315 315 315 314 313 314 314 314 315 313 314 313 313 313 313 314 314 312 314 313 313 314 313 313 314 314 313 313 313 313 313 313 313 313 313 313
309 309 309 310 310 310 310 310 310 310 310 310 310 310 310 310 309 308 308 307 307 307 306 306 307 308 308 307 311 312 312 312 312 312 312 313 314 314 316 316 316 315 314 315 315 315 315 315 315 315 315 315 315 315 315 313 314 315 314 315 315 314 316 315 313 313 312 314 313 313 315 314 314 314 313 313 313 313 313 312 313 312 313 312 312 312 312 312
311 310 309 309 309 309 309 310 310 309 309 310 310 310 310 310 309 309 308 307 307 306 305 306 306 307 307 309 311 312 312 312 312 312 312 313 314 314 315 316 315 315 315 315 316 316 316 315 315 315 315 315 315 315 315 314 315 316 315 315 315 317 321 318 313 313 314 314 312 313 315 313 313 313 312 312 312 312 311 311 312 311 311 311 311 311 311 311
313 311 310 309 309 309 309 309 309 309 309 309 310 310 310 310 309 308 307 307 306 305 305 305 305 306 306 309 310 311 312 311 312 311 311 313 315 315 314 315 315 315 316 316 316 316 315 315 315 315 315 314 314 316 316 316 317 316 317 318 316 317 320 317 313 313 314 313 310 312 315 313 312 312 311 311 311 311 310 310 311 310 310 310 310 310 310 311
314 313 312 312 311 310 309 309 308 309 309 309 308 308 308 308 308 307 306 307 305 304 304 304 306 307 307 310 310 311 312 312 312 312 311 312 314 315 315 315 315 316 316 316 316 316 316 314 313 313 314 314 315 317 316 316 318 316 316 319 319 318 318 316 314 311 311 312 311 312 313 312 312 311 311 312 311 311 309 309 310 310 311 311 311 310 310 311
315 315 314 313 313 312 310 309 309 309 309 309 307 307 308 307 307 307 306 306 304 302 303 305 307 306 309 311 310 311 311 311 312 312 311 311 312 313 314 315 315 316 316 316 316 315 315 314 313 313 313 314 316 317 317 318 321 320 316 317 318 318 317 316 316 312 310 312 312 312 311 311 312 311 311 312 312 311 309 310 311 312 312 312 312 312 311 312
316 315 315 314 314 314 312 311 309 309 309 309 308 308 307 307 307 307 306 306 305 302 303 305 306 307 310 309 308 310 311 312 312 312 312 311 311 312 313 314 315 315 314 314 314 314 314 312 312 314 314 314 315 316 317 319 321 322 319 317 316 315 315 315 315 313 312 313 313 312 312 312 312 311 311 312 313 312 311 312 312 312 312 312 312 312 313 313
316 316 316 315 315 314 314 312 311 310 309 309 309 308 307 307 306 306 306 305 304 305 307 307 306 307 309 310 309 311 313 313 312 312 312 312 311 312 312 314 314 313 313 313 314 312 312 312 313 315 314 314 315 314 316 316 316 318 317 317 316 315 314 314 313 313 312 312 313 312 313 312 312 312 312 313 313 313 312 312 312 312 312 312 313 314 314 314
316 316 316 316 315 315 314 313 311 311 310 309 308 308 308 307 306 307 306 304 305 306 306 306 305 305 306 308 310 312 312 312 311 311 312 312 311 312 313 313 313 313 312 314 315 311 311 314 315 315 314 313 313 313 314 315 315 316 316 316 316 315 314 313 314 314 312 313 314 313 313 313 312 313 313 313 313 313 313 312 311 311 312 313 313 314 314 314
317 317 316 316 316 315 314 313 312 311 310 309 308 308 308 306 306 308 306 305 306 306 306 305 305 305 305 306 310 312 313 312 312 311 312 312 311 313 313 313 314 314 312 312 313 312 311 314 315 313 314 314 313 313 313 314 315 316 316 316 315 314 314 314 313 313 311 312 314 315 314 313 313 314 313 313 313 313 313 313 312 312 313 314 314 314 314 313
317 317 317 316 316 316 315 313 312 310 310 310 309 309 308 307 306 306 305 305 306 307 306 305 305 305 305 305 307 311 313 313 313 312 312 311 311 313 313 313 314 314 312 311 312 312 312 314 314 312 313 315 314 313 313 314 314 315 315 315 315 314 314 314 314 314 313 313 314 315 314 314 313 313 313 313 314 313 312 313 313 311 312 313 313 314 314 313
316 316 317 316 316 316 315 313 311 310 310 310 310 310 308 307 305 304 304 304 306 308 307 306 306 305 306 306 305 307 309 311 312 312 311 311 311 312 312 313 314 313 313 313 313 313 313 314 313 311 313 316 315 314 314 314 313 314 314 315 315 314 315 315 316 316 314 313 314 314 313 313 312 314 316 314 312 313 313 312 312 311 311 311 311 312 312 312
315 315 316 316 316 315 315 313 311 310 310 310 311 310 307 305 304 303 303 304 306 308 309 309 306 305 307 307 305 306 307 308 310 310 311 312 311 312 312 313 312 313 313 313 312 313 314 315 313 313 314 315 315 314 313 314 314 314 314 314 315 314 315 315 315 315 314 314 315 314 315 317 318 320 320 314 312 313 311 310 311 310 310 310 310 311 311 312
313 314 314 315 315 315 314 313 311 310 310 310 311 310 307 305 304 304 304 305 307 307 308 308 306 306 307 306 306 306 306 307 308 309 311 311 311 312 313 312 312 314 313 312 313 312 313 313 311 314 315 313 314 315 314 314 314 314 314 314 314 315 315 314 315 315 315 319 318 314 317 322 323 320 316 314 316 316 312 311 311 309 310 311 310 311 311 311
312 313 313 314 315 315 314 312 311 310 310 310 311 309 307 306 306 306 305 308 312 309 308 309 308 308 308 306 305 305 308 309 307 307 311 311 311 311 313 313 312 313 313 312 313 312 313 312 312 314 315 314 314 314 313 313 314 315 316 316 314 314 314 315 315 315 317 321 317 314 318 320 317 315 315 316 318 317 316 316 312 307 308 310 309 310 310 310
311 311 312 313 314 314 313 312 311 311 310 311 311 309 308 307 307 307 309 314 316 312 309 309 308 309 309 307 306 308 312 312 309 308 310 311 311 311 314 314 312 312 311 312 313 313 314 314 313 314 313 314 314 313 314 314 314 316 318 320 319 316 316 317 316 316 317 317 315 315 316 317 316 315 316 318 317 319 321 319 315 310 308 309 309 309 309 309
309 309 311 312 313 313 313 313 312 311 311 311 311 309 308 307 306 307 313 320 319 314 312 309 307 308 309 308 307 309 311 311 312 312 310 311 312 311 313 313 313 313 312 313 313 312 315 316 315 314 313 314 313 312 315 314 315 318 318 317 320 318 318 318 316 315 315 314 316 316 314 317 320 317 317 316 315 319 322 319 317 314 308 308 309 309 308 308
306 307 309 310 312 312 313 313 312 312 312 311 310 309 307 307 306 308 314 319 317 313 312 311 309 310 310 308 307 307 309 311 314 313 311 312 312 312 313 311 312 314 313 312 312 311 313 315 313 313 314 313 313 314 316 315 314 317 316 315 319 319 317 316 315 315 316 315 316 317 315 317 320 321 319 316 316 321 321 317 317 313 308 308 309 308 308 308
302 305 307 308 311 312 312 312 312 312 312 311 309 308 307 306 308 314 316 318 318 314 310 310 311 311 310 309 308 308 310 312 313 312 312 313 312 312 312 311 310 313 313 312 313 312 312 311 311 313 313 313 314 314 313 314 314 314 314 316 320 320 318 317 316 316 317 317 316 316 317 315 318 323 322 317 319 323 319 313 313 312 309 309 309 309 309 308
298 302 305 307 309 310 310 311 311 312 312 311 309 307 307 307 311 318 319 316 317 315 310 310 311 310 310 310 311 309 310 312 312 313 313 313 313 313 312 312 311 312 313 313 313 312 311 311 312 313 312 311 314 313 309 310 312 313 317 320 320 319 316 315 316 317 317 318 318 316 315 314 316 323 324 319 318 319 316 313 313 313 310 309 309 309 309 309
294 298 302 305 307 309 309 309 310 311 311 310 308 306 308 311 313 317 318 315 317 315 313 314 311 310 310 311 312 310 310 313 312 312 313 313 313 313 313 314 312 314 315 313 312 312 312 312 312 313 312 311 315 316 313 311 312 315 318 319 318 318 316 314 316 317 316 316 316 314 313 314 315 318 318 317 315 314 315 312 311 312 310 308 310 310 309 309
293 295 299 303 306 307 307 308 308 309 310 309 307 306 309 313 315 315 315 317 318 314 314 315 312 311 310 311 313 309 310 314 312 312 313 312 313 313 312 313 312 314 316 313 311 313 314 312 311 311 312 312 314 316 315 314 314 314 316 317 317 317 317 318 316 315 316 317 315 313 315 316 317 317 316 315 314 314 312 309 308 309 309 309 310 310 309 309
293 293 295 300 304 306 306 307 307 308 310 308 306 307 310 313 316 314 314 316 315 313 315 314 311 311 311 312 313 310 310 313 311 312 313 312 313 313 313 313 311 312 315 314 312 314 316 316 314 313 313 313 312 313 316 317 313 312 315 316 316 316 317 319 317 316 320 321 314 312 316 320 322 320 315 312 312 311 309 309 308 309 310 310 310 310 310 310
294 294 293 295 300 305 306 306 306 307 308 307 305 308 311 313 313 313 314 314 314 314 314 312 311 312 312 312 312 310 311 313 311 312 313 312 313 312 312 313 312 311 314 314 314 313 314 317 316 312 310 312 313 312 314 316 313 312 314 315 315 316 316 316 317 315 316 317 315 314 318 321 321 316 313 312 314 312 308 307 306 307 310 310 310 310 310 310
294 294 294 294 296 301 305 305 305 306 306 305 306 309 311 312 312 313 315 314 314 315 314 312 312 314 313 312 312 310 311 312 312 312 312 311 312 312 312 312 312 311 311 312 315 314 314 317 315 310 311 312 312 311 312 314 314 312 313 314 314 315 314 314 316 313 311 313 315 315 316 317 315 314 314 313 315 314 311 309 307 307 308 308 309 310 310 310
293 293 294 294 293 296 302 304 304 304 305 305 307 309 310 310 311 313 314 312 312 314 314 314 314 314 314 313 313 312 311 312 312 312 311 311 312 312 311 312 312 311 311 311 314 316 316 317 314 311 314 311 306 308 311 311 312 314 315 314 312 313 314 315 316 315 314 314 316 315 315 315 314 318 319 314 313 313 311 310 310 307 306 306 308 309 310 310
293 293 294 294 293 294 298 302 304 303 303 304 307 309 309 310 310 311 311 310 310 312 314 315 314 314 315 314 314 313 312 313 312 311 311 312 313 313 312 313 312 310 311 310 312 316 315 315 315 311 312 310 305 309 314 309 308 313 314 312 313 315 316 314 315 317 316 316 318 317 314 313 314 318 319 316 315 313 309 309 309 309 308 306 307 309 310 310
293 294 294 294 294 294 295 300 303 302 303 304 306 308 309 309 309 309 309 309 310 312 313 314 313 313 314 314 314 313 312 313 313 312 313 314 314 314 312 313 313 311 311 310 311 314 315 315 316 311 309 310 309 312 316 313 309 310 310 310 311 313 315 314 313 315 316 316 317 319 317 315 314 315 315 315 315 312 308 308 308 308 307 305 307 310 310 310
292 294 295 295 295 295 294 298 301 302 303 304 306 308 308 309 309 308 308 309 310 311 312 313 313 313 313 313 314 314 313 313 313 312 314 314 315 315 313 312 315 312 310 311 311 312 315 315 315 311 308 310 312 313 314 314 312 311 312 312 311 310 313 314 312 313 317 318 318 317 316 317 316 314 313 313 313 310 308 308 308 308 306 305 309 310 310 311
293 294 294 295 296 296 296 299 302 302 303 304 305 306 307 309 310 308 308 308 309 310 311 312 312 312 313 312 312 313 313 313 313 313 314 313 314 316 313 311 315 313 310 311 311 312 314 315 315 314 310 311 314 313 312 313 313 312 313 313 311 311 313 313 313 313 313 316 319 317 314 314 317 316 313 312 313 312 309 308 309 307 304 306 310 310 310 311
293 294 295 296 296 296 298 301 302 302 302 304 305 306 306 307 309 308 306 307 308 308 309 310 311 311 311 312 312 313 313 313 313 312 313 314 313 314 313 310 311 311 310 311 311 311 314 315 315 315 314 313 312 310 308 310 311 311 312 313 312 312 312 313 315 313 312 314 317 316 313 313 315 316 315 314 314 312 308 307 308 306 304 307 310 309 311 311
293 293 294 296 296 297 299 301 302 302 303 303 304 305 305 305 306 306 306 307 308 308 309 309 309 310 310 311 311 312 313 312 312 313 313 313 313 313 312 310 310 311 312 313 312 311 312 314 314 314 315 314 310 308 306 306 308 310 311 311 311 312 311 312 314 314 314 315 314 313 313 313 315 318 317 315 313 310 306 305 306 305 304 308 310 309 310 310
293 292 293 293 294 296 299 300 301 302 302 303 303 304 304 304 305 305 306 306 307 308 309 308 309 309 310 310 310 310 312 312 312 313 312 313 313 311 309 309 310 312 313 313 313 312 312 314 315 314 316 316 313 311 310 307 307 311 312 310 310 311 311 311 312 312 313 314 313 313 313 312 315 319 317 315 313 312 310 305 303 304 305 308 310 309 309 310
292 292 292 292 292 295 298 299 300 301 301 302 303 303 303 303 303 304 304 304 306 307 308 308 308 308 308 309 309 309 311 312 311 312 312 312 312 311 309 309 311 312 312 312 312 312 314 316 315 314 316 317 316 316 315 312 309 309 311 311 309 310 311 311 312 312 312 313 312 313 312 311 313 315 315 316 314 313 313 307 304 305 307 308 309 309 308 308
293 292 292 293 293 294 296 297 298 299 300 301 302 302 303 303 302 303 303 303 303 304 305 306 307 307 307 308 309 309 309 310 310 312 313 312 312 311 308 306 309 311 311 311 310 312 316 317 315 315 316 316 315 315 315 314 311 310 311 311 310 310 310 311 312 313 313 313 312 312 312 311 311 312 313 315 315 314 313 311 308 307 307 308 308 307 306 307
292 292 293 294 295 295 296 296 296 297 298 299 300 301 302 302 302 302 302 302 303 303 303 304 305 305 306 307 309 309 309 309 309 310 311 311 312 312 308 305 307 310 310 311 311 312 314 314 314 315 315 314 315 315 314 313 312 312 311 311 310 310 310 310 312 312 312 313 313 312 312 312 311 311 311 312 313 313 313 312 309 307 307 308 306 306 306 306
292 292 293 294 294 295 296 296 296 296 296 297 298 299 300 300 301 301 302 302 302 302 303 303 303 304 305 306 307 308 308 309 309 309 309 309 310 312 310 308 307 308 308 310 311 312 313 313 314 315 315 314 314 315 314 312 312 312 311 311 310 310 310 310 311 311 312 312 313 312 312 313 311 310 310 310 310 311 311 310 308 307 307 307 305 305 305 304
292 291 292 293 292 292 294 295 295 295 295 296 296 297 298 298 298 299 300 301 301 302 302 302 303 303 304 304 305 305 306 307 308 309 309 309 309 309 310 310 309 307 307 310 310 310 311 313 313 313 313 314 314 314 313 312 311 312 311 311 310 310 310 310 310 311 311 311 312 312 312 312 310 311 311 310 308 309 309 309 308 307 306 305 304 303 301 301
292 291 292 292 291 291 292 293 293 293 294 295 295 296 297 297 297 298 298 299 299 300 301 302 302 303 303 304 304 304 304 305 306 307 307 308 309 309 309 310 311 309 308 309 309 308 310 313 313 313 312 312 312 313 313 312 312 311 311 311 310 310 310 310 310 310 310 311 311 311 311 311 310 310 312 309 307 308 309 309 308 305 303 303 301 299 298 298
292 292 292 292 291 291 292 292 292 293 293 294 295 295 296 297 297 297 297 297 298 299 299 300 300 300 301 302 302 303 303 303 303 303 303 304 306 307 308 309 311 310 308 308 309 309 309 311 312 312 312 311 312 312 312 312 312 311 311 311 310 310 310 310 310 310 310 310 310 310 311 311 310 311 312 310 309 310 311 311 308 304 302 301 299 296 295 295
292 292 292 292 290 291 292 292 292 292 292 293 294 294 294 295 295 296 295 296 297 297 297 297 297 297 298 298 300 301 300 298 298 298 299 300 301 303 304 305 307 308 307 307 309 309 309 310 310 311 311 311 311 311 311 311 311 311 311 310 310 310 310 310 310 310 310 310 310 310 311 310 311 313 312 311 311 311 311 310 308 304 302 301 299 296 295 294
Wind_Speed
12 12 12 12 11 9 8 8 9 10 10 11 12 13 14 14 14 13 13 13 13 14 14 14 13 13 12 12 12 13 14 16 16 17 21 16 9 12 16 17 15 10 7 7 7 6 4 4 2 3 4 5 6 7 5 5 8 5 1 2 5 3 4 5 6 6 3 6 8 14 18 10 11 20 24 25 26 27 27 31 30 27 27 28 30 31 31 31
13 13 13 13 12 9 8 8 9 10 10 11 12 14 15 14 15 14 14 14 14 15 15 14 14 14 13 13 13 14 15 17 19 22 21 15 13 16 17 18 16 8 5 6 5 5 6 5 3 3 4 5 6 6 5 5 8 7 2 2 6 5 5 6 6 7 6 10 13 16 21 16 16 19 19 15 16 21 22 27 29 27 30 33 33 32 32 33
14 13 14 14 14 11 8 9 9 9 10 10 12 13 14 14 15 15 14 14 14 14 15 15 14 14 13 13 13 14 15 17 21 21 15 10 10 9 8 11 11 7 4 4 4 5 7 5 5 6 4 5 7 7 5 4 6 9 6 3 7 6 5 9 12 15 18 19 14 16 22 20 23 25 19 12 14 16 17 22 22 23 31 36 37 36 35 36
14 13 13 14 15 12 10 9 9 10 10 11 12 13 14 14 14 14 14 14 14 14 14 14 14 13 11 11 12 13 13 15 16 12 3 2 3 4 2 2 8 9 4 4 3 5 6 5 7 7 5 4 6 6 5 7 6 6 8 6 7 5 6 15 20 23 27 25 18 19 20 19 27 27 19 14 13 12 20 27 21 22 31 33 36 37 36 35
14 13 14 14 14 13 12 10 10 11 10 11 12 13 14 14 15 14 14 13 13 13 13 13 13 13 11 10 11 10 9 8 5 2 4 6 6 2 5 3 7 11 8 4 3 6 7 7 5 5 4 4 4 3 5 11 9 4 8 12 13 9 9 17 22 23 27 25 20 19 16 18 24 22 21 17 11 15 29 33 23 25 30 31 34 35 36 36
12 13 15 15 14 13 13 12 11 11 11 11 12 15 15 15 15 15 15 14 13 14 14 14 14 14 12 9 9 9 6 3 2 3 3 2 4 9 9 3 8 13 13 8 7 7 9 7 5 4 3 3 4 4 6 11 10 5 7 12 17 17 14 20 23 23 27 22 16 16 18 21 17 18 28 22 20 32 43 42 34 35 36 35 38 37 39 40
12 13 14 14 15 15 13 12 12 12 12 11 14 17 17 16 15 14 14 13 14 14 14 15 15 15 12 9 8 8 11 14 10 7 10 12 15 13 6 5 9 14 15 12 12 10 10 8 7 6 3 3 5 7 10 13 10 7 6 7 15 19 18 22 24 23 26 23 22 24 22 20 15 18 27 27 35 44 45 46 43 40 40 38 39 39 41 42
12 13 14 14 15 13 11 10 10 10 11 12 15 17 17 16 14 13 13 13 14 14 15 15 15 15 13 8 7 10 18 21 14 10 16 17 17 13 8 9 11 14 15 15 15 10 10 9 10 8 3 4 5 5 7 8 8 7 6 6 10 16 19 23 24 24 28 28 28 25 19 22 26 23 23 32 47 50 45 46 43 39 40 39 38 40 40 42
10 13 14 14 12 10 9 9 8 8 10 12 14 15 15 15 13 12 12 13 14 14 16 16 16 16 12 8 6 9 17 17 9 7 11 14 17 15 12 12 14 15 15 15 12 11 12 10 10 9 5 5 5 5 4 2 4 5 6 8 10 15 22 26 25 26 29 30 28 20 16 27 32 19 19 40 50 46 43 39 38 37 37 37 37 39 39 41
10 11 11 10 9 9 10 10 9 8 9 11 12 12 13 14 13 13 14 14 15 16 17 17 17 15 13 11 4 5 13 13 8 7 6 9 13 14 14 13 14 15 15 13 11 14 14 9 8 8 7 6 4 5 4 3 5 9 12 12 13 17 25 27 23 28 30 29 29 19 15 28 29 9 11 40 45 34 32 32 35 33 33 35 36 38 38 39
9 9 9 9 9 10 11 11 10 9 9 10 11 12 13 14 16 16 17 17 17 17 17 18 17 16 15 12 9 9 14 13 11 11 9 10 12 13 13 12 13 15 14 12 12 14 13 10 9 8 5 3 3 5 5 7 9 14 16 14 15 15 22 26 20 27 23 16 24 16 13 23 16 7 18 41 43 32 28 31 35 34 34 37 38 40 40 40
9 9 9 10 10 11 11 11 10 9 9 10 11 11 12 15 18 19 20 21 19 17 17 17 15 16 15 14 21 20 18 18 18 18 18 16 15 15 13 13 15 15 13 12 12 13 13 11 12 11 8 4 1 4 5 8 12 15 13 11 15 10 13 21 15 19 11 6 19 10 10 16 7 12 29 37 36 34 34 35 37 37 39 40 40 41 41 41
9 9 10 11 11 12 11 11 10 9 10 12 13 13 15 18 19 20 22 23 21 18 17 16 13 14 14 18 26 23 19 21 22 22 22 19 17 17 16 16 15 14 13 12 11 13 13 12 14 14 12 8 3 4 8 10 12 13 8 4 11 9 8 11 6 9 5 7 16 3 4 14 5 14 25 25 25 28 31 34 37 37 38 39 39 40 40 41
7 8 10 11 12 12 12 12 12 11 11 12 13 15 16 17 18 21 23 23 22 20 15 13 13 11 13 23 26 20 20 24 23 23 22 20 19 18 18 17 14 13 14 13 12 13 13 11 12 12 11 9 7 8 9 8 5 7 5 3 4 5 6 6 4 4 3 9 9 4 4 14 14 15 15 15 19 21 25 31 34 35 36 36 36 37 39 41
7 7 7 9 11 12 13 13 13 13 13 13 15 15 16 17 20 22 22 22 22 18 12 10 10 9 14 26 25 16 19 21 19 17 19 22 21 18 19 17 14 14 14 14 14 14 13 11 9 8 6 6 7 6 5 4 2 2 3 3 1 3 6 9 8 4 4 7 3 6 5 11 15 20 18 15 16 19 23 29 33 34 35 36 36 36 37 40
10 8 7 7 7 9 11 12 13 13 13 15 16 16 17 20 22 21 21 22 19 13 9 6 6 6 9 17 16 9 12 14 11 7 13 22 23 19 17 16 16 15 14 13 14 14 14 11 7 6 5 4 2 1 4 4 4 1 2 4 3 4 6 7 8 3 5 3 1 4 6 10 13 20 28 28 22 21 22 28 34 35 36 36 35 35 35 37
13 12 10 9 8 7 8 9 11 12 13 15 17 16 18 20 20 20 20 18 15 10 7 3 2 4 11 15 13 10 9 11 10 7 9 15 21 22 18 16 16 15 15 14 14 13 12 9 4 3 3 2 2 3 2 4 4 2 2 4 5 5 5 6 7 5 1 3 5 5 8 15 19 19 29 36 28 20 19 25 32 35 36 36 35 34 33 34
14 14 13 12 11 9 8 8 9 10 11 13 14 15 16 17 18 19 18 17 15 8 5 8 6 1 11 14 12 11 8 7 7 8 10 10 16 21 20 16 14 14 13 10 12 11 8 4 1 1 1 2 3 5 3 6 5 3 4 3 5 5 6 8 7 5 7 8 10 9 11 19 23 18 21 32 31 21 20 26 31 34 36 35 33 31 30 30
16 15 15 15 13 12 10 9 8 8 9 9 10 12 14 16 17 17 17 16 13 6 4 11 14 4 4 6 6 5 4 3 3 6 10 11 13 17 17 14 13 13 8 4 5 8 8 2 2 2 3 6 7 8 10 10 6 4 5 3 6 7 8 11 9 5 5 10 11 11 13 18 22 20 17 28 33 23 22 25 25 28 30 30 27 24 23 25
21 18 16 15 15 14 12 10 9 8 8 9 10 12 12 10 8 8 10 16 19 16 12 15 20 17 12 9 6 4 5 5 5 6 8 11 15 17 16 13 11 9 6 4 2 5 9 4 3 8 8 10 11 12 14 11 4 3 3 4 8 9 11 12 9 7 4 5 9 9 12 16 21 22 18 23 28 20 18 18 18 22 24 22 18 16 17 18
24 23 21 18 16 16 14 12 10 9 9 10 11 12 10 5 3 4 6 15 23 24 25 25 25 26 25 19 11 6 7 7 9 12 10 13 19 17 15 14 8 4 5 5 3 3 7 5 11 12 8 9 11 11 12 10 6 5 5 6 8 8 12 14 11 10 6 4 6 6 11 18 21 21 18 18 17 14 13 10 13 21 23 22 17 15 16 16
24 25 25 23 21 20 18 14 12 10 10 11 11 12 12 9 8 10 9 12 22 26 26 28 30 34 35 30 23 13 7 7 12 15 14 18 23 17 14 14 6 3 5 4 3 2 3 7 15 11 6 7 9 8 9 10 9 7 5 4 7 6 6 10 9 7 3 3 6 9 12 17 20 20 18 15 10 11 15 14 16 20 21 22 18 16 16 16
22 23 24 24 23 23 21 17 14 12 13 13 11 11 12 9 8 12 11 9 18 25 25 29 33 38 39 36 33 24 16 13 12 16 20 22 25 20 15 12 6 4 6 6 6 5 4 8 14 9 6 7 7 7 8 8 7 6 5 4 8 6 3 6 5 4 5 4 7 11 10 13 17 16 12 10 8 10 17 18 14 10 10 15 14 13 13 15
19 20 20 21 21 22 22 18 15 15 16 14 10 9 8 6 5 9 9 7 10 16 21 25 27 34 37 31 25 27 26 20 11 14 24 27 24 18 13 10 7 5 6 9 10 9 7 7 6 4 7 9 7 7 7 6 5 6 9 8 9 8 7 8 5 7 9 6 5 7 7 9 9 8 9 7 5 7 13 13 8 6 9 12 13 13 12 13
18 18 17 17 18 20 21 18 18 19 18 14 9 6 5 3 3 4 5 5 6 8 11 12 16 22 26 21 17 19 21 20 17 15 22 31 26 13 8 10 7 5 9 9 8 9 9 10 6 1 5 8 7 8 7 7 5 5 10 12 13 12 11 10 7 7 6 5 4 5 5 7 4 7 12 9 6 8 9 8 8 10 11 11 13 14 12 10
18 18 16 15 15 16 19 20 21 21 19 16 10 5 4 3 1 3 3 3 4 4 3 5 9 8 10 14 15 12 7 10 20 21 21 27 28 15 6 7 6 5 8 6 4 4 6 11 11 9 7 7 7 8 6 8 5 4 7 10 12 12 10 9 6 3 1 5 4 4 1 6 8 11 12 5 6 9 8 6 7 9 11 10 11 12 10 9
19 18 17 15 13 15 23 23 22 21 19 16 11 7 6 4 2 3 3 3 5 4 5 4 6 4 5 12 18 15 3 3 10 18 23 24 26 19 7 5 5 4 6 4 3 3 5 9 11 12 9 6 8 8 7 9 6 5 5 5 8 8 7 6 4 4 3 4 5 2 4 4 9 10 6 1 6 9 7 7 7 7 8 8 8 9 10 10
19 18 17 15 13 17 25 26 23 22 21 14 8 10 9 5 5 4 3 4 3 4 5 4 5 4 5 14 22 12 1 5 6 9 22 24 23 17 8 8 8 6 7 6 5 4 5 8 11 11 9 7 9 7 8 11 6 7 5 4 6 6 6 5 4 4 2 3 6 4 6 3 7 7 4 2 6 7 6 6 6 6 6 6 7 10 12 12
20 18 17 16 14 16 25 29 26 22 20 12 8 11 12 9 5 4 1 4 1 3 2 6 7 5 8 15 17 6 2 2 2 6 17 21 23 12 3 9 9 6 8 8 8 6 2 5 8 9 7 7 8 6 9 12 7 5 4 3 2 2 2 3 3 2 2 3 9 6 6 3 6 7 5 2 4 6 6 6 6 6 7 5 6 9 12 13
21 19 18 17 14 16 24 31 28 23 20 14 12 14 15 10 4 2 4 5 1 3 3 6 5 6 11 10 6 4 0 1 4 11 12 11 19 10 1 6 7 3 4 6 8 9 5 2 2 5 7 6 5 5 7 11 9 3 4 1 5 5 3 3 1 2 2 5 10 8 12 7 4 6 5 4 5 6 5 4 6 7 7 4 4 7 10 13
18 20 19 17 16 17 21 28 29 27 23 17 15 18 15 6 2 3 7 2 2 2 4 3 2 6 9 6 3 3 1 2 4 10 6 4 10 7 0 3 3 1 2 6 7 8 7 6 4 5 9 6 3 3 3 4 6 5 4 3 3 4 3 4 3 3 1 6 6 5 10 9 6 6 5 4 5 5 6 6 7 7 7 5 1 4 8 10
14 19 20 20 20 18 18 21 26 29 25 19 20 21 11 1 3 8 6 3 1 3 3 3 2 4 5 1 1 5 3 1 3 5 4 3 5 7 5 5 4 2 3 5 4 4 6 11 9 5 8 10 6 2 0 2 4 5 3 5 2 3 3 3 2 0 4 7 4 2 5 5 7 10 10 10 10 8 6 7 9 8 8 8 4 1 5 7
10 15 20 22 22 19 17 17 21 27 24 22 24 17 6 3 8 11 8 3 2 2 2 3 3 4 5 1 1 4 3 1 5 4 3 4 4 6 7 7 5 2 2 4 1 1 4 7 8 5 5 11 11 6 4 2 5 7 5 6 5 3 1 3 4 2 4 6 4 3 4 3 5 7 14 16 16 13 9 10 13 13 11 10 7 3 3 5
9 11 16 22 24 23 18 15 19 25 26 27 23 9 4 8 11 10 9 7 4 2 2 2 5 5 5 3 3 6 4 3 6 5 3 5 4 5 7 9 10 3 2 1 1 3 3 6 6 8 3 10 15 11 6 6 6 7 6 5 5 5 4 4 4 3 4 4 4 1 3 4 4 4 8 10 11 9 9 15 18 17 14 11 8 6 3 4
11 10 13 18 24 26 20 16 19 26 31 30 17 5 7 11 11 8 7 7 3 2 2 2 5 5 4 4 3 6 5 3 6 6 4 6 5 5 5 7 11 7 2 2 2 3 4 7 7 6 1 9 13 8 7 8 3 4 4 4 4 6 4 3 3 3 1 3 3 2 4 5 4 7 10 7 8 5 3 11 15 16 16 13 10 9 6 3
12 12 13 15 21 26 24 18 18 28 36 27 10 7 11 11 8 4 3 5 5 5 4 1 3 5 5 2 2 7 6 3 6 6 4 5 4 5 5 4 10 13 9 6 2 2 3 5 3 2 2 4 7 4 7 7 4 2 3 4 5 4 4 2 3 1 2 2 4 3 5 5 3 9 12 8 7 5 3 7 9 13 17 15 13 11 8 5
13 13 15 17 17 20 26 23 17 28 37 22 7 8 9 12 11 4 1 3 4 7 8 4 4 6 6 3 4 8 5 2 5 5 3 3 3 6 7 5 9 16 16 11 2 2 4 4 3 4 1 2 1 2 2 2 4 5 4 5 3 2 1 2 1 3 2 3 5 2 6 6 3 6 7 4 4 7 7 9 9 11 13 12 15 14 10 7
14 15 19 20 16 16 26 26 19 29 30 13 8 12 10 13 12 6 4 3 2 4 7 7 6 6 7 6 5 7 6 4 6 6 4 3 4 8 10 6 9 18 23 15 4 2 3 2 4 2 2 1 3 4 2 2 2 5 3 3 3 1 2 2 3 2 1 3 4 3 5 5 6 6 4 4 6 8 9 10 10 10 10 11 16 15 11 9
14 13 15 12 10 14 24 26 24 29 21 6 10 13 10 12 12 11 10 6 2 3 6 8 7 5 7 7 4 6 9 8 8 7 4 4 5 8 13 10 8 15 20 16 7 3 2 2 3 1 0 1 3 1 4 3 1 1 0 1 1 1 3 3 3 3 3 4 4 4 4 4 7 6 6 11 11 10 10 10 11 12 11 14 19 15 11 11
12 8 10 7 7 11 19 26 26 22 11 7 12 12 9 11 9 9 14 11 5 5 6 7 9 8 7 6 4 5 8 9 9 7 6 7 6 6 11 11 6 8 14 15 9 2 2 3 3 1 2 1 2 4 8 10 7 4 4 4 2 2 1 1 1 2 3 4 3 2 5 6 5 4 9 13 10 8 11 12 12 12 13 19 22 17 11 12
11 6 8 8 7 9 20 25 18 12 7 8 12 12 11 9 4 5 13 18 13 8 6 5 7 7 5 6 5 4 6 6 8 8 5 6 8 5 8 13 8 7 9 8 8 5 3 4 3 2 2 4 6 5 6 11 11 9 9 8 8 7 3 2 4 2 2 3 4 3 6 10 6 4 8 9 7 8 11 12 12 11 14 22 24 18 12 12
9 7 7 6 5 11 22 18 9 8 8 10 15 16 10 5 5 6 8 11 11 10 10 7 5 6 5 7 7 5 5 5 7 9 6 9 13 7 8 16 16 15 12 8 11 10 5 1 2 4 5 5 6 3 1 6 6 4 5 6 7 8 7 6 6 4 1 3 5 3 4 11 6 4 6 6 7 8 9 11 10 9 17 24 22 16 14 14
9 13 14 10 7 13 19 10 7 9 7 11 19 19 13 7 5 6 4 5 6 7 8 7 7 10 9 7 7 5 5 6 8 11 9 9 11 9 9 17 19 16 10 6 6 6 4 1 4 6 4 3 2 2 3 2 2 2 4 4 6 8 10 7 4 3 2 3 6 3 4 10 7 3 3 2 5 5 5 10 11 9 16 23 21 16 15 16
12 16 20 18 15 15 14 8 8 11 9 11 14 16 18 15 9 8 6 5 4 2 5 8 8 10 9 6 6 6 6 7 9 13 13 9 7 10 14 21 21 13 8 8 8 8 6 4 5 6 3 2 2 2 2 1 1 3 5 5 7 10 10 5 1 2 2 8 11 6 6 10 5 4 3 3 4 5 4 8 12 11 15 21 21 16 16 16
8 10 16 22 23 19 16 12 10 9 10 14 14 14 17 15 14 19 16 9 7 4 4 6 5 5 7 6 6 7 8 9 8 10 11 7 5 7 15 25 24 14 11 15 18 15 8 5 7 8 6 7 7 7 5 3 3 2 4 8 10 13 14 9 4 4 7 13 12 7 10 12 7 5 6 5 3 5 6 5 8 10 13 18 18 14 12 11
4 4 7 13 18 19 18 20 16 7 7 12 12 13 16 14 15 22 20 14 14 12 9 8 6 6 5 6 10 11 12 12 8 5 5 5 4 3 10 21 22 18 18 20 20 14 4 5 12 14 13 13 12 11 5 5 6 7 10 13 14 14 15 11 6 7 10 10 9 12 15 16 15 9 6 6 4 5 7 3 5 9 12 13 12 8 7 9
5 3 5 4 7 11 13 17 15 7 5 8 5 6 14 15 12 15 17 14 15 15 12 10 9 8 8 9 11 12 13 14 13 10 8 6 4 4 6 10 13 18 19 17 17 11 1 6 14 18 19 18 16 13 7 7 9 11 13 15 14 13 14 12 12 14 13 6 10 19 16 14 22 17 10 11 9 5 7 4 5 9 9 8 7 8 11 13
10 7 10 7 3 4 6 9 10 8 8 9 5 5 12 13 10 11 12 11 13 14 9 8 13 17 17 15 12 10 11 13 14 15 13 11 8 6 5 3 6 11 9 7 11 9 3 8 13 15 18 18 16 12 8 7 7 8 11 15 15 15 16 17 18 20 18 11 15 22 13 12 21 17 11 14 12 8 10 9 5 4 4 5 9 13 14 14
13 6 9 11 5 4 6 5 4 4 7 8 5 6 11 13 13 11 7 5 7 9 8 10 14 16 18 19 15 13 12 11 10 11 10 12 14 10 7 5 5 5 4 4 6 5 4 8 10 12 15 16 16 15 12 11 9 8 11 13 14 15 18 19 19 23 24 19 20 22 13 14 19 12 8 11 11 13 16 15 8 3 4 9 12 14 13 11
17 11 9 9 5 7 12 10 5 3 5 7 5 6 10 12 13 12 7 6 7 6 8 12 13 13 15 16 16 17 18 17 17 15 10 10 11 9 9 8 5 4 6 6 5 4 6 9 10 11 12 14 17 17 18 19 17 16 16 13 12 12 15 18 20 22 20 18 20 20 16 18 16 8 7 7 9 12 12 12 11 2 6 11 13 12 11 11
26 19 13 6 3 5 11 7 4 3 4 5 4 4 7 8 7 7 5 8 10 8 8 9 10 9 10 12 15 17 16 14 16 16 14 13 11 8 7 6 6 6 6 7 6 5 7 9 9 10 11 12 15 18 22 24 23 21 19 16 15 14 14 18 18 16 14 15 19 17 16 17 9 4 6 7 7 10 9 10 10 4 7 13 15 14 12 12
29 21 16 9 3 5 6 3 3 5 4 6 5 4 6 7 5 4 5 7 6 5 5 6 7 8 8 11 13 10 8 10 13 18 20 21 19 17 15 12 11 8 4 5 6 5 7 8 8 10 12 12 15 21 23 21 18 15 15 20 23 21 19 19 16 15 16 16 16 14 16 17 7 4 7 9 10 12 13 14 13 9 10 11 12 14 13 12
Wind_Direction
274 281 286 284 275 262 251 257 265 261 258 259 259 261 262 264 265 267 269 272 275 276 278 280 280 280 278 281 283 284 284 283 283 278 269 270 277 269 267 267 267 265 262 267 265 257 247 228 263 327 284 261 256 262 280 249 217 215 162 186 243 221 213 206 198 226 238 280 287 291 294 293 291 299 304 305 300 296 297 289 284 283 279 277 279 282 284 284
266 271 278 279 274 267 252 250 262 267 263 262 263 263 264 266 268 270 271 275 277 279 280 281 283 284 285 286 288 288 287 288 288 280 275 280 275 262 257 258 255 241 224 244 245 229 230 238 261 293 285 254 241 243 255 240 205 192 163 203 236 215 215 205 216 251 261 275 280 283 284 283 282 289 298 297 292 296 295 286 286 285 282 281 281 281 283 285
258 264 268 271 269 267 259 252 255 265 266 264 265 264 264 267 270 273 274 276 277 279 281 283 286 286 290 292 293 294 293 296 292 287 285 279 265 251 240 243 228 193 185 207 209 231 241 254 267 269 278 257 237 237 239 222 200 202 197 234 242 224 247 247 250 261 265 270 274 278 279 277 278 284 289 286 286 288 278 277 280 279 280 282 283 284 285 285
245 255 260 267 271 271 266 259 250 256 264 266 267 266 265 267 271 274 276 277 277 278 279 283 286 288 295 295 296 296 302 307 296 287 283 208 170 138 119 209 186 179 184 187 212 265 257 257 267 258 260 263 246 248 245 223 215 203 195 227 247 231 261 259 259 264 266 268 266 271 278 278 280 283 280 275 286 285 270 271 270 269 276 280 283 285 284 283
239 250 256 264 270 270 266 264 257 253 261 268 271 270 267 266 269 274 277 277 277 278 279 282 285 289 294 295 295 295 308 325 302 217 137 120 122 115 349 357 181 192 210 223 281 282 246 234 243 245 244 255 253 259 255 235 230 221 218 235 248 246 260 265 266 268 270 270 268 272 275 277 283 285 276 268 264 265 269 273 274 272 275 279 281 283 282 280
238 249 255 263 268 271 271 274 269 256 256 264 267 270 271 271 273 277 278 279 279 280 282 284 285 288 292 294 291 286 280 265 222 163 166 177 268 296 319 294 200 207 220 243 292 276 235 224 219 229 224 231 236 223 249 252 240 241 245 242 251 252 256 269 273 274 277 274 268 269 272 279 286 286 280 269 253 263 271 276 277 276 276 277 278 278 278 277
239 248 254 261 267 273 276 276 270 256 253 255 261 270 275 277 281 279 277 277 278 280 283 285 288 289 292 291 282 274 251 248 256 260 267 276 282 289 285 232 218 218 225 250 283 265 229 219 218 226 211 239 244 227 254 269 259 252 259 254 261 261 259 271 276 278 281 276 270 274 277 279 273 276 283 275 266 268 273 277 276 276 277 276 276 275 274 275
242 250 255 261 267 272 276 278 274 261 253 253 262 273 280 284 285 280 276 277 281 285 284 287 289 288 291 288 280 275 261 264 275 266 265 270 271 271 251 233 226 229 238 259 276 252 221 214 222 230 217 237 239 235 268 287 271 249 251 265 276 276 277 284 286 285 285 281 281 282 277 272 269 274 282 274 274 275 275 277 277 277 278 276 274 274 273 273
250 253 254 260 266 270 275 278 277 267 254 256 268 280 288 291 289 283 280 282 287 292 290 289 288 286 291 286 284 282 270 277 290 260 254 256 257 256 246 236 232 241 253 264 262 224 216 222 230 232 227 249 249 257 284 306 264 248 270 289 291 291 293 294 291 288 286 284 284 283 272 272 272 278 280 271 272 277 278 279 280 279 277 277 277 275 274 272
254 251 252 261 268 274 281 285 285 278 262 263 275 283 289 293 292 290 290 291 292 297 298 293 289 288 288 280 267 270 273 277 281 267 245 240 250 249 240 234 238 249 258 262 235 209 220 229 234 233 245 267 252 262 272 243 275 300 306 302 288 291 293 291 287 284 283 283 279 268 264 271 271 269 270 271 272 275 278 279 280 279 274 276 278 277 275 271
256 250 250 259 267 273 284 294 295 290 277 274 279 282 289 295 296 296 298 297 299 306 303 296 294 288 286 274 232 240 269 272 272 274 259 241 241 241 240 237 244 252 257 254 223 214 227 231 240 242 253 265 248 280 276 263 294 310 316 312 291 290 290 284 279 279 279 281 278 266 265 268 260 224 238 261 274 279 276 276 278 275 272 273 274 275 275 271
256 249 246 250 257 264 273 284 289 289 281 278 278 277 280 285 292 298 300 302 307 313 304 299 295 285 290 270 245 253 269 270 271 272 266 255 241 235 234 235 244 249 247 241 220 220 227 230 242 240 243 254 297 310 284 294 312 311 316 312 295 298 286 278 266 266 257 260 284 292 291 275 199 214 245 257 273 279 276 274 274 273 272 272 271 272 272 271
265 255 249 248 253 261 267 273 278 277 274 276 275 269 268 277 291 298 301 306 310 312 305 300 289 283 288 267 261 270 273 266 264 262 260 254 242 234 227 227 235 235 231 229 223 230 233 236 242 239 245 250 267 282 286 311 316 306 303 273 298 313 286 280 257 257 248 273 288 344 302 286 235 227 253 271 276 274 273 271 272 273 272 271 270 269 269 271
282 268 260 255 255 259 264 267 269 268 269 272 271 271 273 280 288 292 298 303 306 308 302 291 284 284 272 265 275 284 274 266 259 257 255 244 237 230 224 224 225 223 222 224 227 236 241 242 243 242 244 244 262 286 301 323 317 302 296 224 294 303 277 295 294 270 297 289 277 140 235 282 288 270 265 285 283 270 265 269 275 275 275 274 272 270 269 271
288 284 274 264 258 258 260 261 264 267 268 264 264 272 277 280 283 290 297 299 303 304 291 281 281 279 269 273 284 284 270 269 267 264 248 233 228 223 222 223 220 220 221 223 227 234 241 243 240 240 242 246 270 305 327 336 334 317 288 290 288 229 270 302 292 234 220 283 225 156 256 274 281 287 288 289 286 277 268 273 280 280 279 278 275 273 270 272
275 280 281 278 272 268 265 261 260 265 269 268 267 269 273 277 283 290 295 295 300 297 280 283 275 260 272 283 289 279 268 272 276 266 231 225 223 219 218 219 220 224 225 225 226 229 238 245 251 251 240 236 238 9 348 319 319 335 207 271 271 240 288 314 305 237 182 279 225 187 274 281 275 289 295 293 289 281 273 278 282 282 283 281 278 276 272 273
265 268 271 276 281 285 281 271 264 262 264 271 275 273 274 279 283 288 290 288 291 288 266 222 181 252 260 271 278 270 271 276 266 233 218 221 219 220 218 215 218 224 228 231 231 231 239 244 248 255 232 201 138 103 5 294 278 295 206 244 260 247 275 294 300 307 7 348 296 262 268 275 278 286 291 292 291 284 273 278 283 285 285 284 282 280 276 274
257 259 264 268 275 283 286 283 276 268 265 273 281 279 276 280 283 283 279 276 278 280 244 197 158 297 264 257 265 268 276 278 250 217 213 211 210 217 217 214 218 222 224 230 234 228 228 235 190 258 274 133 150 139 185 246 228 234 224 237 279 264 252 258 268 306 336 320 296 291 281 278 283 285 286 290 292 288 277 278 281 283 284 284 285 283 282 280
251 252 257 262 268 274 279 284 285 278 272 273 278 277 281 286 283 276 266 258 248 229 226 202 185 191 269 244 246 268 273 231 206 200 203 202 195 197 204 210 214 210 192 184 229 207 184 140 80 226 225 194 197 183 202 227 210 209 232 248 283 281 267 259 257 270 300 297 287 281 280 283 289 291 292 293 296 294 284 282 280 279 280 283 288 291 294 292
251 250 250 256 262 266 269 275 278 275 269 267 267 274 287 290 282 278 254 242 240 240 251 230 213 228 253 256 250 239 228 229 236 213 193 196 187 177 185 192 191 192 175 157 197 185 167 158 229 224 213 202 205 206 217 239 264 284 278 275 274 277 277 274 275 272 247 270 273 263 275 283 287 291 292 293 298 298 290 288 284 283 284 286 293 305 314 310
254 251 249 250 255 260 261 262 265 263 262 263 264 269 276 266 259 296 274 262 265 260 256 251 242 245 253 253 250 232 215 231 237 219 199 189 179 170 179 176 163 190 190 154 119 151 157 184 236 230 212 204 207 213 227 249 270 272 264 275 278 266 270 278 283 280 255 231 263 270 286 287 286 290 292 292 296 289 282 286 288 291 293 293 301 315 321 321
254 253 252 250 250 257 258 254 254 250 251 258 263 268 273 272 266 278 289 284 282 275 262 257 249 247 252 249 240 233 208 224 229 209 193 183 178 178 175 169 177 187 169 152 109 131 171 224 244 233 175 190 215 216 222 237 243 248 248 264 272 267 282 281 272 277 269 220 279 301 297 289 287 287 289 288 280 271 277 281 285 290 290 293 309 321 318 314
253 253 254 253 251 255 255 251 245 239 246 255 265 275 283 290 272 272 282 279 286 283 265 254 244 241 248 248 240 233 226 235 229 203 195 184 180 189 176 165 189 160 158 195 180 172 191 232 247 231 167 179 214 222 214 231 237 233 236 239 256 269 305 277 270 316 312 266 277 295 293 282 284 289 288 270 251 272 292 294 288 295 301 304 319 325 323 319
254 252 253 255 252 251 253 247 233 232 245 252 269 281 282 291 269 273 280 264 280 282 267 257 245 238 243 248 242 229 224 229 225 206 200 185 175 185 185 170 169 165 197 208 199 210 218 230 241 188 175 188 206 225 211 219 239 233 233 230 246 260 251 250 288 332 313 296 286 301 298 276 279 302 301 282 263 286 308 315 320 352 342 323 322 316 319 325
255 255 255 255 250 249 248 236 221 228 240 245 261 269 251 250 259 290 301 283 267 268 269 252 235 239 239 238 236 220 215 225 229 217 198 189 181 172 175 177 167 192 213 206 210 233 243 248 258 171 180 185 201 229 209 200 226 249 240 230 235 247 251 259 297 340 328 306 322 11 335 281 292 306 291 296 315 304 320 339 336 346 348 336 330 322 316 316
251 255 257 254 251 242 232 222 221 228 234 241 249 238 227 229 268 351 345 307 270 234 228 201 204 224 215 210 205 184 185 236 232 221 201 196 196 180 150 174 182 206 197 189 221 241 239 237 238 239 221 182 204 235 203 183 202 254 245 221 223 234 245 259 277 317 297 263 284 53 49 278 299 295 279 284 317 303 314 329 314 336 353 349 345 339 333 322
248 250 251 251 247 225 216 216 221 224 229 242 244 217 220 213 137 41 26 295 267 171 136 170 180 163 184 189 170 152 146 212 203 212 202 196 197 190 178 178 183 202 171 154 242 231 191 206 220 229 224 203 222 235 194 169 179 243 243 188 191 207 219 224 212 218 230 278 287 168 154 265 291 288 270 264 312 307 310 312 310 328 343 344 354 3 5 1
245 243 242 242 238 220 218 223 223 225 233 242 231 203 194 163 139 97 55 290 270 121 124 159 164 163 166 170 167 159 156 144 130 202 199 193 194 192 203 199 177 185 177 164 223 232 164 188 211 211 211 219 225 224 187 169 189 244 229 163 167 179 190 173 168 226 258 345 289 207 148 240 269 276 291 283 284 289 286 282 286 294 305 329 1 19 25 28
241 240 237 232 230 220 222 229 229 235 242 237 211 193 168 145 133 85 45 258 219 95 138 151 149 157 137 156 184 206 34 121 87 169 179 189 195 193 226 205 180 180 201 200 221 238 180 181 197 190 205 223 216 215 183 177 208 236 177 129 69 87 103 118 155 233 25 314 265 215 158 222 266 277 296 294 250 244 250 260 260 268 279 311 5 25 32 35
239 236 232 227 222 214 220 226 228 235 239 225 202 181 155 144 121 74 239 242 98 81 122 147 159 158 139 144 205 241 93 40 96 141 154 182 194 197 317 195 185 172 229 249 245 245 250 248 208 192 214 214 196 205 184 186 198 149 117 94 6 15 34 41 75 68 47 272 260 207 179 199 264 281 255 230 230 199 183 228 251 261 263 275 10 32 37 36
242 231 226 222 213 208 217 222 222 225 226 217 193 168 153 142 98 210 230 242 56 101 106 134 165 140 145 147 182 188 129 21 122 147 150 154 182 195 167 174 173 111 273 273 262 257 256 255 259 210 203 182 142 187 193 193 174 120 102 103 16 331 5 18 10 53 181 249 266 211 181 187 229 263 249 239 256 207 164 185 212 237 248 238 294 40 46 40
253 231 221 217 210 207 211 216 219 219 216 207 184 164 151 171 221 222 238 24 34 198 135 156 168 142 159 153 181 170 129 60 175 165 162 144 172 198 205 194 163 113 265 243 243 267 249 235 234 225 204 180 144 161 268 28 125 135 125 116 114 293 355 352 294 80 230 251 281 160 159 191 230 254 265 265 262 239 203 189 189 202 223 219 207 88 55 44
270 241 225 215 211 211 206 205 209 210 205 192 176 162 143 224 226 224 227 267 257 192 127 143 117 126 151 136 251 174 133 183 186 172 172 161 183 212 227 238 212 168 236 209 216 281 274 262 226 207 222 189 172 187 208 179 161 162 156 154 175 202 225 258 253 269 253 267 291 155 162 258 258 257 255 254 253 239 220 212 198 190 197 202 197 168 84 51
278 259 237 220 215 214 206 196 196 200 199 183 171 165 193 220 235 229 210 221 237 75 76 119 108 123 162 198 222 165 153 224 182 163 166 158 179 217 225 237 229 227 52 151 221 191 245 302 207 178 210 187 187 203 184 137 161 179 157 151 170 167 181 215 211 227 252 289 303 198 175 214 204 248 251 248 260 252 218 211 204 196 196 198 199 185 144 72
276 271 254 233 222 216 210 194 189 198 195 179 168 184 206 221 241 235 209 201 193 84 63 96 112 138 206 236 231 189 190 214 172 162 186 184 191 206 202 214 207 195 155 184 236 178 215 277 220 184 155 171 185 197 139 114 153 201 132 127 195 185 181 225 202 185 196 316 296 216 223 221 213 279 286 274 277 291 225 203 199 203 204 201 205 193 169 126
279 269 263 251 229 219 215 199 187 196 190 175 175 212 206 225 231 211 203 171 162 147 123 86 124 163 223 240 229 222 212 185 165 170 203 206 213 208 199 209 193 191 192 188 205 182 212 284 240 154 7 181 186 175 149 156 175 159 143 179 201 170 155 227 260 14 72 276 266 198 240 270 285 283 284 275 260 265 231 199 199 209 205 204 210 196 178 165
279 270 269 260 238 221 216 208 195 197 190 177 199 220 213 232 224 214 238 152 160 150 142 208 209 172 204 216 210 215 200 159 168 173 190 193 230 212 203 223 193 192 203 201 208 215 205 277 245 168 217 256 230 80 119 179 140 131 191 203 146 89 88 126 244 341 31 254 270 228 235 253 235 257 292 320 257 232 215 199 203 217 211 214 219 203 188 181
279 283 280 263 243 224 214 211 205 199 194 189 223 226 232 233 219 211 203 164 158 140 152 215 212 169 193 207 212 199 178 175 175 174 182 186 236 204 187 211 199 197 207 202 213 271 187 256 272 169 152 321 27 69 68 327 119 135 200 203 119 151 220 136 161 235 227 240 276 285 265 245 212 230 295 298 244 222 212 200 203 220 216 221 224 212 201 197
284 289 286 266 236 222 210 207 207 201 199 209 218 219 235 235 225 216 205 189 172 167 187 221 219 202 197 189 188 178 183 195 176 171 193 195 227 196 177 194 205 204 203 189 196 264 136 208 271 23 172 358 35 113 184 211 212 91 217 245 67 172 189 172 169 172 182 216 259 297 308 263 220 214 225 237 233 210 203 202 207 217 214 217 221 216 209 205
281 278 274 254 230 228 204 197 202 200 202 223 218 223 238 237 237 218 205 206 207 198 208 224 226 227 211 197 202 180 194 205 181 183 209 197 219 221 187 186 183 194 192 185 199 244 79 225 236 7 321 214 179 206 192 184 178 175 196 203 210 204 174 237 229 158 155 177 202 259 283 265 242 205 210 230 235 204 200 204 209 215 211 214 218 217 215 205
269 265 269 243 228 216 190 189 200 203 212 225 223 236 242 239 250 209 207 217 226 228 222 224 228 229 221 220 228 187 188 206 190 197 222 205 217 238 193 180 163 151 158 177 214 213 187 226 203 161 233 217 225 234 199 190 185 182 195 198 195 191 173 219 241 224 121 162 183 191 264 266 252 194 213 234 232 211 208 206 210 215 203 207 216 217 212 201
250 244 254 230 225 202 184 186 211 209 214 224 222 233 249 266 253 229 223 225 231 240 240 240 235 230 229 227 230 200 177 198 200 203 223 216 216 226 190 179 168 153 147 174 210 200 175 186 212 221 227 220 232 254 212 206 199 193 210 199 189 191 191 202 222 220 136 214 209 163 255 266 256 190 207 233 231 221 211 204 213 214 200 203 211 210 200 197
234 246 245 225 230 211 191 194 230 213 222 236 231 240 257 271 254 238 246 233 227 236 238 243 241 237 238 234 235 218 182 201 203 202 225 230 222 226 197 176 166 157 157 176 200 184 147 146 230 244 270 294 297 341 8 30 136 221 242 196 180 203 212 208 209 198 159 211 216 189 246 261 270 252 224 270 275 263 229 216 216 208 201 203 202 195 194 198
239 259 255 240 238 227 206 200 215 217 232 239 240 250 252 255 261 254 249 226 214 227 235 239 241 239 239 234 236 225 201 216 211 205 222 235 223 214 197 181 173 170 183 184 171 168 168 183 214 226 255 289 299 303 305 335 162 215 235 207 198 211 217 227 253 199 218 232 224 220 247 253 277 329 345 360 321 306 288 234 215 202 199 195 188 186 196 202
242 264 262 250 246 240 229 228 229 227 231 232 237 243 245 253 254 248 253 252 239 251 257 249 264 274 261 248 245 231 213 226 231 217 220 230 232 218 201 193 186 185 204 195 176 169 175 190 193 203 221 222 227 237 229 199 175 209 232 215 211 209 204 211 231 215 230 240 234 227 243 254 274 326 334 333 319 297 293 250 216 211 200 188 184 191 204 203
221 237 255 252 245 238 236 243 248 247 234 235 237 234 234 243 248 248 253 255 248 251 259 267 304 328 294 253 251 247 235 233 236 236 233 225 235 244 209 203 199 201 208 198 179 166 165 204 195 205 218 218 229 241 215 145 156 197 218 213 212 212 204 205 221 222 229 244 250 237 237 255 264 256 267 282 265 256 265 246 214 220 203 188 191 192 181 169
207 219 221 227 235 230 231 241 244 241 240 242 244 241 237 239 248 249 244 243 243 242 247 256 259 263 255 247 253 251 245 243 238 242 254 243 251 291 247 220 216 217 213 198 182 168 143 224 207 215 223 222 231 232 189 157 182 202 211 211 212 208 200 205 215 225 232 236 253 246 232 244 258 248 233 249 257 262 262 248 226 225 205 180 176 163 150 150
214 225 228 226 226 228 228 235 240 243 248 247 245 259 256 252 250 245 243 249 246 235 233 240 237 240 245 249 259 262 254 251 242 236 239 238 240 268 279 260 236 232 227 204 190 177 204 228 213 221 229 230 237 231 188 175 196 203 204 208 211 202 196 207 215 225 229 218 241 252 230 221 251 252 226 234 244 253 260 256 233 213 212 189 162 150 148 149
213 216 240 238 228 256 264 266 283 270 255 258 249 240 253 259 257 254 254 268 260 239 234 241 235 234 239 241 247 257 257 257 253 241 238 239 233 230 246 255 237 218 193 206 213 185 201 226 212 221 235 233 235 236 222 212 215 217 211 208 208 202 202 210 217 226 230 226 238 252 246 241 254 249 214 223 232 241 259 266 251 166 164 181 159 145 147 146
213 208 224 228 215 260 266 267 278 278 260 270 267 242 249 256 260 264 258 250 264 262 251 256 254 246 244 240 237 243 247 251 258 259 260 260 244 229 234 232 218 203 186 203 236 204 207 222 212 219 238 233 228 232 231 227 226 223 220 214 209 206 209 216 222 228 231 233 241 249 256 261 259 229 195 214 230 240 258 268 259 232 137 154 146 143 148 144
220 215 212 195 139 241 255 263 269 253 249 252 245 260 268 266 275 298 299 268 262 262 268 284 294 287 273 264 255 252 255 258 265 273 279 279 273 266 258 232 213 217 199 200 221 208 211 228 221 227 243 232 220 225 230 233 233 229 224 220 215 212 216 221 225 227 223 227 238 240 244 252 249 175 192 215 225 240 253 254 247 217 153 158 152 151 151 142
218 215 212 204 168 227 239 281 281 255 256 246 230 243 265 278 316 339 312 288 269 279 315 336 330 317 300 284 276 274 290 297 291 293 294 290 286 280 277 277 272 262 227 211 227 215 213 226 218 224 240 234 219 224 230 232 236 232 219 217 220 219 223 231 235 230 221 220 228 229 233 242 234 141 199 216 213 228 242 246 241 222 203 191 168 160 155 144